Date String (YYYY-MM-DD hh:mm:ss) UTC,Instrument flags,absolute air pressure of the measurement (hPa),sample flow rate (lpm),inlet stack bypass flow (lpm),air temperature of the measurement (°C),ambient temperature measured by the external sensor (°C),aerosol sample conditioner tube jacket temperature (°C),OPC LED temperature (°C),internal box temperature (°C),relative humidity of the measurement (%),span deviation,mass concentration of particles derived from Lorenz-Mie calculation of OPC scattering (μg/m³),mass concentration of particles derived from Lorenz-Mie calculation of OPC scattering (μg/m³),mass concentration of particles derived from Lorenz-Mie calculation of OPC scattering (μg/m³)
DateTimeUTC,F1_M11,P_M11,Q1_M11,Q2_M11,T1_M11,T2_M11,T3_M11,T4_M11,T5_M11,U1_M11,ZSPAN_M11,X0_M11,X2_M11,X1_M11
2023-08-13 00:00:00,SystemResetWarning,0830.9,5.01,000.00,028.9,024.8,000.0,037.2,030.2,26.2,0000.0,0006.61,0003.56,0003.09
2023-08-13 00:01:00,SystemResetWarning,0830.9,5.02,000.00,028.9,025.0,000.0,037.2,030.1,26.4,0000.0,0006.82,0003.52,0003.05
2023-08-13 00:02:00,SystemResetWarning,0830.9,4.99,000.00,028.8,025.4,000.0,037.2,030.1,26.8,0000.0,0006.66,0003.46,0003.01
2023-08-13 00:03:00,SystemResetWarning,0830.9,5.00,000.00,028.8,025.9,000.0,037.2,030.3,26.9,0000.0,0006.36,0003.39,0002.97
2023-08-13 00:04:00,SystemResetWarning,0830.9,5.01,000.00,028.8,026.3,000.0,037.3,030.4,26.6,0000.0,0006.23,0003.35,0002.93
2023-08-13 00:05:00,SystemResetWarning,0830.9,5.01,000.00,028.8,026.7,000.0,037.3,030.5,27.2,0000.0,0006.23,0003.34,0002.91
2023-08-13 00:06:00,SystemResetWarning,0830.9,5.00,000.00,028.9,027.0,000.0,037.3,030.6,29.0,0000.0,0006.29,0003.32,0002.88
2023-08-13 00:07:00,SystemResetWarning,0830.9,5.00,000.00,028.9,027.3,000.0,037.3,030.7,29.8,0000.0,0006.34,0003.31,0002.86
2023-08-13 00:08:00,SystemResetWarning,0830.8,5.00,000.00,029.0,027.5,000.0,037.3,030.8,29.1,0000.0,0006.43,0003.30,0002.84
2023-08-13 00:09:00,SystemResetWarning,0830.8,5.00,000.00,029.0,027.7,000.0,037.4,030.8,29.7,0000.0,0006.27,0003.26,0002.80
2023-08-13 00:10:00,SystemResetWarning,0830.8,5.00,000.00,029.1,027.9,000.0,037.4,030.9,28.4,0000.0,0006.28,0003.24,0002.77
2023-08-13 00:11:00,SystemResetWarning,0830.8,4.99,000.00,029.1,027.6,000.0,037.4,030.9,28.7,0000.0,0005.65,0003.22,0002.75
2023-08-13 00:12:00,SystemResetWarning,0830.7,4.99,000.00,029.1,026.0,000.0,037.3,030.6,29.0,0000.0,0004.77,0003.18,0002.72
2023-08-13 00:13:00,SystemResetWarning,0830.7,5.00,000.00,029.0,024.8,000.0,037.2,030.3,29.2,0000.0,0004.45,0003.15,0002.69
2023-08-13 00:14:00,SystemResetWarning,0830.7,5.01,000.00,028.9,024.9,000.0,037.1,030.2,29.6,0000.0,0004.37,0003.12,0002.66
2023-08-13 00:15:00,SystemResetWarning,0830.7,5.01,000.00,028.8,025.2,000.0,037.2,030.2,29.1,0000.0,0004.39,0003.11,0002.63
2023-08-13 00:16:00,SystemResetWarning,0830.7,5.00,000.00,028.8,025.7,000.0,037.2,030.3,29.7,0000.0,0004.96,0003.04,0002.60
2023-08-13 00:17:00,SystemResetWarning,0830.7,5.00,000.00,028.8,026.1,000.0,037.3,030.4,29.1,0000.0,0004.90,0002.98,0002.57
2023-08-13 00:18:00,SystemResetWarning,0830.7,5.00,000.00,028.8,026.5,000.0,037.3,030.5,28.8,0000.0,0004.93,0003.01,0002.56
2023-08-13 00:19:00,SystemResetWarning,0830.7,5.00,000.00,028.9,026.9,000.0,037.3,030.6,28.6,0000.0,0004.85,0003.02,0002.56
2023-08-13 00:20:00,SystemResetWarning,0830.6,4.99,000.00,028.9,027.2,000.0,037.3,030.7,28.3,0000.0,0004.99,0003.06,0002.56
2023-08-13 00:21:00,SystemResetWarning,0830.6,4.99,000.00,029.0,027.4,000.0,037.3,030.7,28.7,0000.0,0004.96,0003.04,0002.55
2023-08-13 00:22:00,SystemResetWarning,0830.6,5.00,000.00,029.0,027.7,000.0,037.4,030.8,28.9,0000.0,0005.04,0003.05,0002.54
2023-08-13 00:23:00,SystemResetWarning,0830.6,5.02,000.00,029.1,027.9,000.0,037.4,030.9,27.6,0000.0,0005.08,0003.05,0002.54
2023-08-13 00:24:00,SystemResetWarning,0830.7,4.99,000.00,029.1,027.4,000.0,037.4,030.8,27.8,0000.0,0005.06,0003.03,0002.53
2023-08-13 00:25:00,SystemResetWarning,0830.6,4.98,000.00,029.0,025.6,000.0,037.2,030.5,28.2,0000.0,0005.11,0003.05,0002.53
2023-08-13 00:26:00,SystemResetWarning,0830.6,5.01,000.00,029.0,024.7,000.0,037.1,030.2,28.0,0000.0,0005.55,0003.08,0002.55
2023-08-13 00:27:00,SystemResetWarning,0830.6,5.01,000.00,028.9,024.9,000.0,037.1,030.1,28.2,0000.0,0005.65,0003.11,0002.56
2023-08-13 00:28:00,SystemResetWarning,0830.6,5.00,000.00,028.8,025.3,000.0,037.2,030.1,28.6,0000.0,0005.50,0003.13,0002.57
2023-08-13 00:29:00,SystemResetWarning,0830.6,5.00,000.00,028.8,025.7,000.0,037.2,030.3,28.5,0000.0,0005.56,0003.13,0002.56
2023-08-13 00:30:00,SystemResetWarning,0830.7,5.00,000.00,028.8,026.2,000.0,037.3,030.4,28.8,0000.0,0005.47,0003.12,0002.54
2023-08-13 00:31:00,SystemResetWarning,0830.7,5.00,000.00,028.8,026.6,000.0,037.3,030.5,28.9,0000.0,0005.40,0003.11,0002.53
2023-08-13 00:32:00,SystemResetWarning,0830.7,5.00,000.00,028.9,026.9,000.0,037.3,030.6,28.3,0000.0,0005.34,0003.09,0002.52
2023-08-13 00:33:00,SystemResetWarning,0830.6,4.99,000.00,028.9,027.2,000.0,037.3,030.7,28.5,0000.0,0005.23,0003.04,0002.52
2023-08-13 00:34:00,SystemResetWarning,0830.6,4.99,000.00,029.0,027.5,000.0,037.3,030.8,28.7,0000.0,0005.23,0003.04,0002.50
2023-08-13 00:35:00,SystemResetWarning,0830.6,5.00,000.00,029.0,027.7,000.0,037.4,030.8,28.7,0000.0,0005.28,0003.06,0002.50
2023-08-13 00:36:00,SystemResetWarning,0830.7,5.00,000.00,029.1,027.8,000.0,037.4,030.9,29.0,0000.0,0005.30,0003.09,0002.51
2023-08-13 00:37:00,SystemResetWarning,0830.6,4.99,000.00,029.1,027.0,000.0,037.3,030.7,29.2,0000.0,0004.84,0003.07,0002.48
2023-08-13 00:38:00,SystemResetWarning,0830.6,5.00,000.00,029.0,025.3,000.0,037.2,030.3,29.6,0000.0,0004.12,0003.02,0002.46
2023-08-13 00:39:00,SystemResetWarning,0830.6,5.01,000.00,028.9,024.7,000.0,037.1,030.1,29.8,0000.0,0004.13,0003.02,0002.45
2023-08-13 00:40:00,SystemResetWarning,0830.6,5.01,000.00,028.8,024.9,000.0,037.1,030.0,29.9,0000.0,0004.05,0002.98,0002.47
2023-08-13 00:41:00,SystemResetWarning,0830.6,5.00,000.00,028.7,025.3,000.0,037.1,030.1,29.9,0000.0,0004.10,0002.99,0002.49
2023-08-13 00:42:00,SystemResetWarning,0830.6,5.00,000.00,028.7,025.8,000.0,037.2,030.2,30.2,0000.0,0004.10,0003.00,0002.50
2023-08-13 00:43:00,SystemResetWarning,0830.6,4.99,000.00,028.8,026.2,000.0,037.2,030.4,30.4,0000.0,0004.12,0003.03,0002.52
2023-08-13 00:44:00,SystemResetWarning,0830.7,5.01,000.00,028.8,026.6,000.0,037.2,030.5,30.2,0000.0,0004.37,0003.10,0002.53
2023-08-13 00:45:00,SystemResetWarning,0830.7,5.00,000.00,028.8,027.0,000.0,037.3,030.5,30.1,0000.0,0004.43,0003.12,0002.54
2023-08-13 00:46:00,SystemResetWarning,0830.7,4.99,000.00,028.9,027.2,000.0,037.3,030.6,30.4,0000.0,0004.61,0003.13,0002.55
2023-08-13 00:47:00,SystemResetWarning,0830.7,5.01,000.00,028.9,027.5,000.0,037.3,030.7,30.4,0000.0,0004.65,0003.12,0002.56
2023-08-13 00:48:00,SystemResetWarning,0830.8,5.00,000.00,029.0,027.7,000.0,037.3,030.8,30.3,0000.0,0004.88,0003.15,0002.58
2023-08-13 00:49:00,SystemResetWarning,0830.8,4.98,000.00,029.0,027.9,000.0,037.4,030.8,30.0,0000.0,0005.01,0003.17,0002.59
2023-08-13 00:50:00,SystemResetWarning,0830.9,5.00,000.00,029.1,028.0,000.0,037.4,030.9,29.8,0000.0,0005.16,0003.19,0002.59
2023-08-13 00:51:00,SystemResetWarning,0830.9,4.99,000.00,029.1,026.9,000.0,037.3,030.7,29.8,0000.0,0005.17,0003.20,0002.58
2023-08-13 00:52:00,SystemResetWarning,0830.8,5.01,000.00,029.0,025.2,000.0,037.2,030.4,29.8,0000.0,0005.23,0003.20,0002.59
2023-08-13 00:53:00,SystemResetWarning,0830.8,5.01,000.00,028.9,024.7,000.0,037.1,030.2,30.0,0000.0,0005.34,0003.21,0002.58
2023-08-13 00:54:00,SystemResetWarning,0830.8,5.00,000.00,028.8,025.0,000.0,037.1,030.1,30.2,0000.0,0005.30,0003.19,0002.58
2023-08-13 00:55:00,SystemResetWarning,0830.8,5.00,000.00,028.8,025.4,000.0,037.2,030.1,30.1,0000.0,0005.22,0003.19,0002.58
2023-08-13 00:56:00,SystemResetWarning,0830.9,5.01,000.00,028.8,025.9,000.0,037.2,030.3,30.3,0000.0,0005.24,0003.21,0002.59
2023-08-13 00:57:00,SystemResetWarning,0830.8,5.00,000.00,028.8,026.3,000.0,037.2,030.4,30.4,0000.0,0005.88,0003.19,0002.58
2023-08-13 00:58:00,SystemResetWarning,0830.8,5.00,000.00,028.8,026.7,000.0,037.3,030.5,30.6,0000.0,0006.21,0003.19,0002.60
2023-08-13 00:59:00,SystemResetWarning,0830.8,5.00,000.00,028.8,027.0,000.0,037.3,030.6,30.8,0000.0,0006.17,0003.19,0002.61
